COSMOS 2251 DEB, 34451

Orbit data source: Space-Track

COSMOS 2251 DEB, 34451 is space debris in LEO originally from a launch on Wed, 16 Jun 1993 UTC launched from the Plesetsk Missile And Space Complex (PKMTR). The debris from Iridium 33, an American commercial communications satellite, has been tracked extensively since its accidental collision with the defunct Russian satellite Cosmos 2251 in 2009. This event, occurring at high speed in low Earth orbit (LEO), generated thousands of pieces of space debris, significantly increasing the risk of further collisions. The Iridium 33 debris cloud has impacted space traffic management and orbital debris mitigation strategies, making it a subject of ongoing study in space situational awareness.

Loading next visibility...
Identifier
34451, 1993-036SU
Orbit
LEO
Country
Flag of CISCIS
Related business
Manufacturer
Unknown
Mission
Spacecraft
Bus & Motor
Unknown
Mass
Unknown
Launch date (UTC)
1993-06-16 (32 years ago)
Launch vehicle
Unknown
Launch site
Plesetsk Missile And Space Complex (PKMTR)
Object type
Payload
Rocket body
Debris
Shape & HBR
Unknown shape, 0.1 m
Radar Cross Section
Small (<0.1 m²)

Expand to show TLE details & history
Last TLE update: 10 hours ago

TLE from 10 hours ago
0 COSMOS 2251 DEB
1 34451U 93036SU  25294.54381532  .00042481  00000-0  42130-2 0  9992
2 34451  74.0486 192.7710 0032777 234.1824 125.6312 14.91163895878566
Epoch: 2025-10-21T13:03Z
TLE epoch observation values (Epoch: 2025-10-21T13:03:05.643Z)
Latitude
-0.00002°
Longitude
-33.23278°
Altitude
610.349 km
Speed
7.547 km/s
True Right ascension
12h 51m 05s
True Declination
0° 00' 00"
Sunlit
Object was in daylight at epoch
Visualization orbit readout
Latitude
Unknown
Longitude
Unknown
Altitude
Unknown
Speed
Unknown
Apparent Right ascension
Unknown
Apparent Declination
Unknown
Sunlit
N/A
Visualization observer readout
Local Sidereal Time
17:44:19
Azimuth
Unknown
Elevation
Unknown
Doppler factor
Unknown
Orbital elements
Apogee altitude
614.713 km
Perigee altitude
569.022 km
Semi-major axis
6,970.004 km
Eccentricity
0.00328
Inclination
74.0486°
RAAN
192.771°
Arg. of periapsis
234.1824°
True anomaly
125.93575°
Mean anomaly
125.6312°
Eccentric anomaly
125.78355°
Mean motion
3.72987 °/min
Orbital period
96.52 mins
BSTAR
0.004213

Documentation

Showing up to 5 results
|